[[{"header":{"parameterUnit":"m.s-1","parameterCategory":1,"la1":30.2991,"la2":30.254,"lo1":-89.0895,"lo2":-89.0444,"dy":0.0017,"dx":0.0017,"nx":28,"ny":28,"refTime":"2025-05-16T21:00:00:Z","depth":0,"parameterNumber":2,"parameterNumberName":"U-component_of_WINDS"},"data":[0,0,0,0,0,0,0,0,0,0,0,0,0,0,0,0,0,0,0,0,0,0,0,0,0,0,0,0,0,0,0,0,0,0,0,0,0,0,0,0,0,0,0,0,0,0,0,0,0,0,0,0,0,0,0,0,0,0,3.7613,3.7614,0,3.773,3.7732,3.7733,3.7701,3.7699,3.7696,3.7694,3.7816,3.7821,3.7826,0,0,0,0,0,0,0,0,0,0,0,0,0,3.7361,3.7366,3.7612,3.7614,3.7615,3.773,3.7732,3.7733,3.7702,3.7699,3.7696,3.7693,3.7814,3.782,3.7827,0,0,0,0,0,0,0,0,0,0,0,0,0,3.7474,3.7367,3.7612,3.7613,3.7615,3.773,3.7732,3.7734,3.7702,3.7699,3.7695,3.7692,3.7812,3.782,3.7828,3.7949,0,0,3.7852,3.7856,0,0,0,0,0,0,0,0,3.7467,3.7483,3.7612,3.7614,3.7615,3.7697,3.7687,3.7806,3.7703,3.7669,3.7694,3.769,3.7779,3.779,3.782,3.7954,3.796,3.7853,3.7858,3.7862,3.7864,0,0,0,0,0,0,0,3.7459,3.7478,3.7659,3.7614,3.7616,3.7608,3.762,3.771,3.7743,3.7672,3.767,3.7684,3.7779,3.7812,3.7822,3.7961,3.7853,3.786,3.7865,3.7868,3.8201,3.8204,0,0,0,0,0,0,3.745,3.7471,3.7655,3.7663,3.7531,3.7616,3.7629,3.7675,3.7741,3.7748,3.7687,3.7682,3.78,3.7813,3.7826,3.7972,3.7862,3.7869,3.7874,3.8197,3.8201,3.8206,0,0,0,0,0,0,3.7445,3.7467,3.7651,3.7566,3.7589,3.7624,3.7675,3.7679,3.7711,3.7753,3.7759,3.7714,3.7797,3.7815,3.7918,3.7975,3.7873,3.788,3.8192,3.8198,3.8204,3.8264,0,0,0,0,0,0,3.7438,3.7465,3.7512,3.7568,3.7594,3.7741,3.7679,3.7684,3.7725,3.772,3.778,3.7786,3.7796,3.7906,3.7926,3.7985,3.7887,3.8187,3.8195,3.8202,3.8257,3.8271,3.8283,0,0,0,0,0,3.7429,3.7524,3.7514,3.7536,3.7652,3.7744,3.7759,3.7768,3.773,3.7777,3.7803,3.7784,3.7966,3.7917,3.7939,3.8001,3.8183,3.8193,3.8201,3.8251,3.8268,3.8283,0,0,0,0,0,0,3.7474,3.7532,3.7521,3.7637,3.7686,3.7738,3.7798,3.7786,3.7847,3.7839,3.7848,3.7862,3.7967,3.7995,3.7939,3.8122,3.8069,3.8083,3.81,3.8116,3.8129,3.812,3.7893,0,0,0,0,0,3.7498,3.7567,3.7614,3.7712,3.7737,3.7763,3.7803,3.7806,3.7857,3.7877,3.7912,3.7962,3.803,3.8075,3.814,3.8261,3.8273,3.8315,3.8328,3.8338,3.835,3.8415,3.8433,3.8235,3.8235,3.8235,0,0,3.7547,3.7587,3.763,3.7722,3.776,3.7831,3.7781,3.7859,3.7912,3.7889,3.7988,3.8016,3.8072,3.8184,3.8236,3.8211,3.8407,3.835,3.8358,3.8364,3.8426,3.8444,3.8461,3.8241,3.824,3.8239,0,0,3.7673,3.7711,3.7796,3.7835,3.7893,3.791,3.7931,3.7985,3.8002,3.8102,3.8086,3.8149,3.8267,3.8308,3.8344,3.8485,3.8469,3.8506,3.8575,3.8638,3.8653,3.8667,3.8716,3.8734,3.8518,3.8518,3.8518,0,3.7727,3.7834,3.7842,3.7921,3.7961,3.7944,3.803,3.8068,3.8144,3.8173,3.8143,3.829,3.8327,3.8448,3.8483,3.8513,3.8536,3.8499,3.865,3.8664,3.8678,3.8725,3.8743,3.8522,3.8521,3.8521,3.8521,0,3.7897,3.7971,3.8033,3.8107,3.8155,3.8237,3.8257,3.8304,3.8303,3.8323,3.8424,3.8468,3.8541,3.857,3.857,3.8692,3.8674,3.8648,3.8595,3.87,3.8744,3.8763,3.8528,3.8526,3.8525,3.8524,0,0,3.8054,3.8131,3.8153,3.8186,3.8249,3.8306,3.8388,3.8459,3.8499,3.8553,3.8621,3.8721,3.8697,3.8738,3.8742,3.8798,3.8905,3.8764,3.8766,3.8788,3.904,3.9059,3.9079,3.8896,3.8899,3.8902,3.9035,0,3.8185,3.8328,3.8337,3.8466,3.8535,3.8519,3.859,3.8636,3.8657,3.8718,3.8741,3.8811,3.8775,3.8799,3.8854,3.888,3.8956,3.8871,3.8958,3.8961,3.8943,3.9103,3.9123,3.9246,3.9053,3.9056,3.9058,0,3.8356,3.8414,3.855,3.8602,3.8631,3.8695,3.876,3.8819,3.8871,3.8882,3.8928,3.8924,3.9008,3.8953,3.9067,3.901,3.9046,3.9065,3.907,3.9077,3.9015,3.9113,3.9286,3.9304,3.9085,3.9083,3.9081,0,3.8455,3.8568,3.8663,3.8692,3.8756,3.8801,3.8829,3.8878,3.892,3.8977,3.9005,3.9072,3.9108,3.916,3.9174,3.9133,3.9288,3.9235,3.9299,3.9299,3.9331,3.9329,3.9511,3.9357,3.9357,3.9357,3.9356,0,3.8599,3.8683,3.8709,3.8767,3.886,3.887,3.8962,3.8988,3.9031,3.9094,3.9086,3.9145,3.9161,3.9224,3.9236,3.9328,3.9345,3.9356,3.9358,3.9356,3.9354,3.9379,3.937,3.9361,3.936,3.9359,3.9359,0,3.8726,3.8746,3.8849,3.8901,3.8916,3.8982,3.9026,3.9083,3.9102,3.9183,3.9202,3.9233,3.9306,3.9326,3.9414,3.9421,3.953,3.9525,3.9512,3.9512,3.9574,3.9568,3.9777,3.9805,3.9635,3.9636,3.9637,0,3.8815,3.8879,3.8938,3.8979,3.901,3.9077,3.912,3.9132,3.9177,3.924,3.9289,3.9361,3.9419,3.9537,3.9567,3.9634,3.9629,3.9698,3.9639,3.9635,3.9628,3.9624,3.963,3.9709,3.971,3.9712,3.9713,0,3.8972,3.8979,3.9041,3.9106,3.9157,3.921,3.926,3.9294,3.9314,3.9364,3.9439,3.9484,3.9573,3.9644,3.9712,3.9741,3.973,3.9732,3.975,3.9748,3.9737,3.9742,3.9541,3.9726,3.9725,3.9724,3.9723,3.9723,3.9082,3.9138,3.9187,3.9256,3.9295,3.9342,3.9397,3.9423,3.9485,3.9558,3.9562,3.9643,3.9693,3.9782,3.9815,3.9878,3.9858,3.9884,3.9891,3.9897,3.9901,3.9729,3.9891,3.9891,3.989,3.989,3.989,0,3.9237,3.9268,3.9331,3.9401,3.9455,3.9441,3.9495,3.9541,3.9612,3.966,3.9717,3.9802,3.9871,3.9907,3.9975,4.0019,4.0015,4.0036,4.0032,4.0039,3.9917,3.9894,4.0037,4.0037,4.0037,4.0037,4.0037,4.0037,3.9324,3.9416,3.9429,3.9541,3.9572,3.965,3.9683,3.9726,3.9763,3.9859,3.9916,3.9938,3.9981,4.0053,4.0115,4.0124,4.0149,4.0172,4.0178,4.0063,4.0048,4.0033,4.0011,4.0178,4.0178,4.0294,4.0296,4.0296]},{"header":{"parameterUnit":"m.s-1","parameterCategory":1,"la1":30.2991,"la2":30.254,"lo1":-89.0895,"lo2":-89.0444,"dy":0.0017,"dx":0.0017,"nx":28,"ny":28,"refTime":"2025-05-16T21:00:00:Z","depth":0,"parameterNumber":3,"parameterNumberName":"V-component_of_WINDS"},"data":[0,0,0,0,0,0,0,0,0,0,0,0,0,0,0,0,0,0,0,0,0,0,0,0,0,0,0,0,0,0,0,0,0,0,0,0,0,0,0,0,0,0,0,0,0,0,0,0,0,0,0,0,0,0,0,0,0,0,3.364,3.3641,0,3.3754,3.3755,3.3757,3.3758,3.3756,3.3755,3.3753,3.3868,3.3872,3.3876,0,0,0,0,0,0,0,0,0,0,0,0,0,3.3419,3.3424,3.364,3.3641,3.3642,3.3754,3.3755,3.3757,3.3758,3.3756,3.3754,3.3753,3.3866,3.3872,3.3877,0,0,0,0,0,0,0,0,0,0,0,0,0,3.3522,3.3425,3.3639,3.3656,3.3659,3.3753,3.3755,3.3757,3.3758,3.3756,3.3754,3.3752,3.3865,3.3871,3.3878,3.3962,0,0,3.3898,3.3901,0,0,0,0,0,0,0,0,3.3517,3.3531,3.3652,3.3655,3.3659,3.3739,3.372,3.3826,3.3759,3.372,3.3753,3.3751,3.3827,3.3836,3.3862,3.3967,3.3972,3.3898,3.3902,3.3905,3.3907,0,0,0,0,0,0,0,3.351,3.3526,3.3685,3.3654,3.3658,3.3657,3.367,3.374,3.3784,3.3724,3.3724,3.3738,3.3828,3.3856,3.3865,3.3974,3.3898,3.3904,3.3908,3.3911,3.4153,3.4156,0,0,0,0,0,0,3.3499,3.352,3.3681,3.3688,3.3581,3.3663,3.3677,3.3716,3.3784,3.3792,3.3739,3.3737,3.3846,3.3857,3.3869,3.3973,3.3905,3.3911,3.3915,3.4151,3.4154,3.4157,0,0,0,0,0,0,3.3495,3.3514,3.3676,3.3604,3.3625,3.3669,3.3713,3.3719,3.3747,3.3796,3.3803,3.376,3.3845,3.386,3.3939,3.3977,3.3914,3.392,3.4148,3.4152,3.4155,3.418,0,0,0,0,0,0,3.3488,3.3512,3.3545,3.3605,3.3629,3.3745,3.3715,3.3723,3.3759,3.3757,3.3817,3.3825,3.3844,3.3929,3.3946,3.3985,3.3925,3.4145,3.415,3.4154,3.4176,3.4184,3.4191,0,0,0,0,0,3.348,3.3547,3.3547,3.3566,3.3671,3.3748,3.3761,3.3783,3.3762,3.3795,3.3826,3.3823,3.397,3.3937,3.3956,3.3997,3.4142,3.4148,3.4154,3.4173,3.4183,3.4191,0,0,0,0,0,0,3.349,3.3555,3.3556,3.3644,3.369,3.3748,3.379,3.3792,3.3845,3.3841,3.3865,3.3878,3.3957,3.3985,3.3948,3.4082,3.4053,3.4063,3.4062,3.4071,3.4079,3.4071,3.3931,0,0,0,0,0,3.3502,3.3559,3.3613,3.3686,3.3709,3.3746,3.378,3.3792,3.3841,3.386,3.3897,3.3944,3.4,3.4037,3.4092,3.418,3.4193,3.4217,3.4225,3.4231,3.4239,3.4287,3.4299,3.4175,3.4175,3.4175,0,0,3.3528,3.3571,3.3606,3.3689,3.3726,3.3784,3.3762,3.3825,3.3868,3.387,3.3947,3.3976,3.4029,3.4113,3.4152,3.4139,3.4276,3.4238,3.4242,3.4247,3.4294,3.4306,3.4316,3.4179,3.4178,3.4177,0,0,3.3605,3.3644,3.3709,3.3747,3.3804,3.3828,3.3843,3.3901,3.392,3.3998,3.4001,3.4052,3.4149,3.4187,3.4219,3.4311,3.431,3.4328,3.4367,3.4414,3.4424,3.4433,3.4466,3.4477,3.4335,3.4335,3.4336,0,3.363,3.3719,3.3741,3.3805,3.3841,3.3846,3.3911,3.3947,3.4018,3.4043,3.4027,3.4149,3.4186,3.4279,3.4301,3.4327,3.4345,3.4321,3.4421,3.443,3.4438,3.447,3.4482,3.4337,3.4337,3.4337,3.4337,0,3.3747,3.3809,3.3854,3.3925,3.3966,3.403,3.4061,3.4099,3.4108,3.4133,3.4213,3.4256,3.432,3.4343,3.4352,3.4437,3.4427,3.4416,3.4388,3.4452,3.4482,3.4494,3.434,3.4339,3.4339,3.4338,0,0,3.3834,3.3916,3.3933,3.3965,3.4028,3.4076,3.4139,3.4203,3.4236,3.4285,3.4339,3.442,3.441,3.4447,3.446,3.4501,3.4571,3.4484,3.4486,3.4499,3.4668,3.4677,3.469,3.457,3.4572,3.4574,3.4663,0,3.3919,3.4034,3.4055,3.4155,3.4212,3.4217,3.4272,3.4317,3.4342,3.4393,3.442,3.4478,3.446,3.4482,3.4523,3.4554,3.4605,3.4547,3.462,3.4622,3.4607,3.4706,3.4716,3.4798,3.4675,3.4677,3.4679,0,3.4034,3.4087,3.4192,3.4248,3.4273,3.4323,3.4382,3.4431,3.4481,3.4497,3.4537,3.4546,3.4611,3.4579,3.4669,3.463,3.466,3.4679,3.4683,3.4691,3.4655,3.4717,3.4824,3.4837,3.4698,3.4696,3.4695,0,3.4087,3.4185,3.4261,3.4288,3.4355,3.439,3.4419,3.4467,3.4504,3.4555,3.4579,3.4637,3.4669,3.4714,3.4737,3.4712,3.4826,3.4796,3.484,3.4839,3.4864,3.4863,3.4978,3.4883,3.4883,3.4883,3.4882,0,3.418,3.4244,3.4286,3.4333,3.4405,3.4428,3.4499,3.4527,3.457,3.4622,3.4629,3.4677,3.4705,3.4756,3.4775,3.4847,3.4861,3.4875,3.4879,3.4875,3.4873,3.4896,3.4891,3.4886,3.4885,3.4885,3.4884,0,3.4252,3.4283,3.4366,3.4423,3.4439,3.4489,3.4537,3.4583,3.4607,3.4673,3.4689,3.4728,3.479,3.4817,3.4892,3.4905,3.4987,3.4987,3.4971,3.4972,3.5015,3.5011,3.515,3.517,3.5061,3.5062,3.5063,0,3.431,3.436,3.4422,3.4458,3.4489,3.4546,3.4584,3.4608,3.4647,3.4708,3.4745,3.4807,3.4858,3.4956,3.499,3.5048,3.5049,3.5094,3.5058,3.5052,3.5051,3.5048,3.5053,3.5101,3.5102,3.5103,3.5104,0,3.4409,3.4422,3.4476,3.4537,3.4582,3.463,3.4677,3.4705,3.4737,3.478,3.4844,3.4883,3.4961,3.5022,3.5082,3.5111,3.5113,3.5115,3.5128,3.5124,3.5113,3.512,3.4989,3.5111,3.5111,3.511,3.511,3.5109,3.4476,3.4521,3.4572,3.4633,3.4671,3.4715,3.476,3.4791,3.4845,3.4911,3.4922,3.4989,3.5037,3.5118,3.5149,3.5202,3.5191,3.521,3.5215,3.522,3.5223,3.5104,3.5213,3.5213,3.5212,3.5212,3.5212,0,3.4576,3.461,3.4665,3.4731,3.4779,3.4777,3.4829,3.4869,3.4929,3.4974,3.5024,3.5097,3.5156,3.5195,3.5255,3.5289,3.5292,3.5304,3.5302,3.5309,3.5229,3.5212,3.5302,3.5302,3.5302,3.5302,3.5301,3.5301,3.4634,3.471,3.4728,3.4823,3.4855,3.4923,3.4952,3.4993,3.5029,3.5111,3.516,3.5186,3.5228,3.5291,3.5345,3.5355,3.5377,3.539,3.5399,3.5324,3.5315,3.5306,3.529,3.5395,3.5395,3.5475,3.5476,3.5476]}]]